When you browse on this site, cookies collect data to enhance your experience and personalize the content and advertising you see.
Visit our Privacy Policy to learn more. By continuing to use the site, you agree to this use of cookies and data.
  • In Portugal
  • List of Countries
  • For 7 days
  • Water Temperature
  • Weather Map
  • Weather Widgets
  • user-avatar
    Login

    Hourly Weather Ksiki

    Today, 20 September, Friday

    Time Temperature Precipitation Wind Pressure Humidity
    00:00 +4°C° 0 mm 2 mps 733 mmHg 93%
    01:00 +4°C° 0 mm 2 mps 733 mmHg 92%
    02:00 +4°C° 0 mm 2 mps 733 mmHg 93%
    03:00 +3°C° 0 mm 2 mps 733 mmHg 93%
    04:00 +3°C° 0 mm 2 mps 732 mmHg 93%
    05:00 +4°C° 0 mm 2 mps 733 mmHg 91%
    06:00 +5°C° 0 mm 2 mps 733 mmHg 90%
    07:00 +6°C° 0 mm 2 mps 733 mmHg 87%
    08:00 +7°C° 0 mm 2 mps 733 mmHg 81%
    09:00 +9°C° 0 mm 3 mps 733 mmHg 75%
    10:00 +10°C° 0 mm 3 mps 733 mmHg 69%
    11:00 +11°C° 0.1 mm 4 mps 733 mmHg 64%
    12:00 +12°C° 0.1 mm 4 mps 733 mmHg 59%
    13:00 +12°C° 0.1 mm 4 mps 733 mmHg 55%
    14:00 +12°C° 0.1 mm 4 mps 732 mmHg 58%
    15:00 +12°C° 0.1 mm 3 mps 732 mmHg 62%
    16:00 +11°C° 0.1 mm 3 mps 732 mmHg 66%
    17:00 +10°C° 0 mm 2 mps 732 mmHg 72%
    18:00 +8°C° 0 mm 2 mps 732 mmHg 78%
    19:00 +8°C° 0 mm 1 mps 732 mmHg 84%
    20:00 +7°C° 0 mm 1 mps 732 mmHg 85%
    21:00 +7°C° 0 mm 1 mps 732 mmHg 86%
    22:00 +7°C° 0 mm 1 mps 733 mmHg 87%
    23:00 +7°C° 0 mm 1 mps 733 mmHg 88%

    Tomorrow, 21 September, Saturday

    Time Temperature Precipitation Wind Pressure Humidity
    00:00 +5°C° 0 mm 2 mps 733 mmHg 88%
    01:00 +5°C° 0 mm 2 mps 733 mmHg 89%
    02:00 +5°C° 0 mm 2 mps 733 mmHg 89%
    03:00 +6°C° 0 mm 1 mps 733 mmHg 89%
    04:00 +6°C° 0 mm 1 mps 732 mmHg 89%
    05:00 +6°C° 0 mm 1 mps 732 mmHg 86%
    06:00 +7°C° 0 mm 1 mps 733 mmHg 83%
    07:00 +8°C° 0 mm 1 mps 733 mmHg 79%
    08:00 +11°C° 0 mm 1 mps 733 mmHg 71%
    09:00 +13°C° 0 mm 1 mps 733 mmHg 62%
    10:00 +16°C° 0 mm 1 mps 733 mmHg 53%
    11:00 +16°C° 0 mm 1 mps 733 mmHg 51%
    12:00 +18°C° 0 mm 1 mps 732 mmHg 50%
    13:00 +19°C° 0 mm 1 mps 732 mmHg 48%
    14:00 +19°C° 0 mm 1 mps 732 mmHg 52%
    15:00 +18°C° 0 mm 1 mps 731 mmHg 56%
    16:00 +18°C° 0 mm 1 mps 731 mmHg 59%
    17:00 +15°C° 0 mm 1 mps 731 mmHg 67%
    18:00 +13°C° 0 mm 1 mps 731 mmHg 74%
    19:00 +11°C° 0 mm 1 mps 731 mmHg 81%
    20:00 +10°C° 0 mm 1 mps 731 mmHg 82%
    21:00 +10°C° 0 mm 1 mps 731 mmHg 83%
    22:00 +10°C° 0 mm 1 mps 731 mmHg 84%
    23:00 +9°C° 0 mm 1 mps 731 mmHg 84%

    Day after tomorrow, 22 September, Sunday

    Time Temperature Precipitation Wind Pressure Humidity
    00:00 +9°C° 0 mm 1 mps 730 mmHg 84%
    01:00 +9°C° 0 mm 1 mps 730 mmHg 84%
    02:00 +9°C° 0 mm 1 mps 730 mmHg 84%
    03:00 +8°C° 0 mm 1 mps 730 mmHg 83%
    04:00 +8°C° 0 mm 1 mps 730 mmHg 83%
    05:00 +9°C° 0 mm 1 mps 730 mmHg 79%
    06:00 +10°C° 0 mm 1 mps 730 mmHg 76%
    07:00 +11°C° 0 mm 1 mps 730 mmHg 73%
    08:00 +14°C° 0 mm 1 mps 730 mmHg 66%
    09:00 +16°C° 0 mm 1 mps 730 mmHg 58%
    10:00 +18°C° 0 mm 0 mps 730 mmHg 51%
    11:00 +21°C° 0 mm 1 mps 729 mmHg 49%
    12:00 +22°C° 0 mm 1 mps 729 mmHg 47%
    13:00 +22°C° 0 mm 1 mps 729 mmHg 45%
    14:00 +22°C° 0 mm 1 mps 728 mmHg 50%
    15:00 +21°C° 0 mm 1 mps 728 mmHg 54%
    16:00 +21°C° 0 mm 1 mps 727 mmHg 59%
    17:00 +18°C° 0 mm 1 mps 727 mmHg 66%
    18:00 +15°C° 0 mm 1 mps 727 mmHg 72%
    19:00 +13°C° 0 mm 1 mps 727 mmHg 78%
    20:00 +12°C° 0 mm 1 mps 727 mmHg 79%
    21:00 +12°C° 0 mm 1 mps 726 mmHg 79%
    22:00 +11°C° 0 mm 1 mps 726 mmHg 79%
    23:00 +11°C° 0 mm 1 mps 726 mmHg 77%

    23 September, Monday

    Time Temperature Precipitation Wind Pressure Humidity
    00:00 +11°C° 0 mm 1 mps 726 mmHg 75%
    01:00 +11°C° 0 mm 1 mps 725 mmHg 74%
    02:00 +11°C° 0 mm 1 mps 725 mmHg 70%
    03:00 +12°C° 0 mm 1 mps 725 mmHg 66%
    04:00 +12°C° 0 mm 1 mps 725 mmHg 62%
    05:00 +13°C° 0 mm 1 mps 724 mmHg 62%
    06:00 +13°C° 0 mm 1 mps 724 mmHg 62%
    07:00 +13°C° 0 mm 1 mps 724 mmHg 61%
    08:00 +14°C° 0 mm 1 mps 724 mmHg 62%
    09:00 +15°C° 0 mm 1 mps 724 mmHg 62%
    10:00 +15°C° 0 mm 1 mps 725 mmHg 63%
    11:00 +15°C° 0 mm 1 mps 724 mmHg 65%
    12:00 +15°C° 0 mm 1 mps 724 mmHg 67%
    13:00 +15°C° 0 mm 1 mps 724 mmHg 69%
    14:00 +16°C° 0 mm 1 mps 724 mmHg 70%
    15:00 +16°C° 0 mm 1 mps 723 mmHg 72%
    16:00 +15°C° 0 mm 0 mps 723 mmHg 73%
    17:00 +14°C° 0 mm 0 mps 723 mmHg 74%
    18:00 +14°C° 0 mm 1 mps 723 mmHg 76%
    19:00 +14°C° 0 mm 1 mps 723 mmHg 77%
    20:00 +14°C° 0 mm 1 mps 723 mmHg 78%
    21:00 +13°C° 0 mm 1 mps 723 mmHg 78%
    22:00 +13°C° 0 mm 1 mps 723 mmHg 79%
    23:00 +13°C° 0 mm 1 mps 723 mmHg 81%

    24 September, Tuesday

    Time Temperature Precipitation Wind Pressure Humidity
    00:00 +12°C° 0 mm 1 mps 723 mmHg 82%
    01:00 +12°C° 0 mm 1 mps 723 mmHg 84%
    02:00 +12°C° 0 mm 1 mps 723 mmHg 84%
    03:00 +12°C° 0 mm 1 mps 723 mmHg 84%
    04:00 +10°C° 0 mm 0 mps 722 mmHg 85%
    05:00 +11°C° 0 mm 0 mps 722 mmHg 84%
    06:00 +11°C° 0 mm 0 mps 722 mmHg 82%
    07:00 +12°C° 0 mm 0 mps 722 mmHg 81%
    08:00 +13°C° 0 mm 0 mps 723 mmHg 78%
    09:00 +13°C° 0 mm 0 mps 723 mmHg 76%
    10:00 +15°C° 0 mm 1 mps 723 mmHg 73%
    11:00 +15°C° 0 mm 1 mps 723 mmHg 74%
    12:00 +15°C° 0 mm 1 mps 723 mmHg 75%
    13:00 +16°C° 0 mm 1 mps 722 mmHg 76%
    14:00 +15°C° 0 mm 1 mps 722 mmHg 78%
    15:00 +14°C° 0 mm 0 mps 722 mmHg 80%
    16:00 +14°C° 0 mm 0 mps 722 mmHg 82%
    17:00 +13°C° 0 mm 0 mps 722 mmHg 85%
    18:00 +12°C° 0 mm 0 mps 723 mmHg 87%
    19:00 +11°C° 0 mm 0 mps 723 mmHg 89%
    20:00 +11°C° 0 mm 0 mps 723 mmHg 90%
    21:00 +10°C° 0 mm 0 mps 723 mmHg 91%
    22:00 +10°C° 0 mm 0 mps 723 mmHg 91%
    23:00 +10°C° 0 mm 0 mps 723 mmHg 92%

    25 September, Wednesday

    Time Temperature Precipitation Wind Pressure Humidity
    00:00 +9°C° 0 mm 0 mps 723 mmHg 92%
    01:00 +9°C° 0 mm 0 mps 723 mmHg 93%
    02:00 +9°C° 0 mm 0 mps 722 mmHg 93%
    03:00 +9°C° 0 mm 0 mps 722 mmHg 93%
    04:00 +9°C° 0 mm 0 mps 722 mmHg 93%
    05:00 +9°C° 0 mm 0 mps 722 mmHg 91%
    06:00 +10°C° 0 mm 0 mps 722 mmHg 89%
    07:00 +11°C° 0 mm 0 mps 722 mmHg 86%
    08:00 +13°C° 0 mm 0 mps 723 mmHg 79%
    09:00 +16°C° 0 mm 1 mps 723 mmHg 72%
    10:00 +19°C° 0 mm 1 mps 723 mmHg 66%
    11:00 +20°C° 0 mm 1 mps 723 mmHg 64%
    12:00 +20°C° 0 mm 1 mps 723 mmHg 62%
    13:00 +21°C° 0 mm 1 mps 722 mmHg 60%
    14:00 +20°C° 0.1 mm 1 mps 722 mmHg 66%
    15:00 +19°C° 0.1 mm 1 mps 722 mmHg 71%
    16:00 +17°C° 0.1 mm 0 mps 722 mmHg 77%
    17:00 +16°C° 0.1 mm 0 mps 722 mmHg 80%
    18:00 +16°C° 0.1 mm 1 mps 722 mmHg 84%
    19:00 +14°C° 0.1 mm 1 mps 722 mmHg 88%
    20:00 +14°C° 0.1 mm 1 mps 722 mmHg 88%
    21:00 +14°C° 0.1 mm 1 mps 722 mmHg 88%
    22:00 +14°C° 0.1 mm 1 mps 722 mmHg 88%
    23:00 +14°C° 0 mm 1 mps 722 mmHg 89%
    Show more